Location: Pacheco
(37.9835°N, 122.0752°W)
Time: 17:29:23
(UTC+00:00)

ISS - Visible Passes

Search period start: 23 June 2024 00:00
Search period end: 03 July 2024 00:00
Orbit: 410 x 425 km, 51.6° (Epoch: 23 June)

Date Brightness Start Highest point End Pass type
(mag) Time Alt. Az. Time Alt. Az. Time Alt. Az.
23 Jun -3.4 11:05:52 37° S 11:06:49 52° SE 11:10:04 10° ENE visible
24 Jun -2.0 10:19:35 25° ESE 10:19:35 25° ESE 10:21:43 10° ENE visible
24 Jun -2.3 11:52:34 10° W 11:55:32 30° NNW 11:58:32 10° NNE visible
25 Jun -3.1 11:06:08 31° W 11:07:21 48° NW 11:10:36 10° NE visible
26 Jun -3.4 10:19:42 61° NE 10:19:42 61° NE 10:22:32 10° NE visible
26 Jun -1.2 11:54:17 10° WNW 11:56:22 15° NNW 11:58:27 10° NNE visible
27 Jun -1.3 09:33:11 19° ENE 09:33:11 19° ENE 09:34:17 10° ENE visible
27 Jun -1.6 11:06:05 14° WNW 11:07:59 21° NNW 11:10:36 10° NNE visible
28 Jun -2.3 10:19:29 31° NW 10:19:38 31° NNW 10:22:39 10° NNE visible
29 Jun -1.7 09:32:48 27° NNE 09:32:48 27° NNE 09:34:35 10° NE visible
29 Jun -0.9 11:07:17 10° NW 11:08:42 12° NNW 11:10:07 10° N visible
30 Jun -0.6 08:46:04 12° NE 08:46:04 12° NE 08:46:22 10° NE visible
30 Jun -1.2 10:18:57 13° NW 10:20:11 16° NNW 10:22:19 10° NNE visible
01 Jul -1.4 09:32:08 21° NNW 09:32:08 21° NNW 09:34:21 10° NNE visible
02 Jul -0.9 08:45:14 17° NNE 08:45:14 17° NNE 08:46:16 10° NE visible
02 Jul -0.4 10:20:46 10° NNW 10:20:48 10° NNW 10:20:49 10° NNW visible
